sat.trackr.live / text

‹ back to catalog

STARLINK-31421

NORAD 59218 · 2024-046T

PAYLOAD ACTIVE UNKNOWN

§ Identity

Operator
Country
US
Launch date
2024-03-11
Launch site
AFWTR
Launch vehicle
Mass (kg)
RCS (m²)

Purposes: comms

External: N2YO · Heavens-Above · Gunter

§ Orbital elements

Epoch: 2026-09-20T10:40:01.310304Z

Period
93.85 min
Inclination
53.1616°
Eccentricity
0.0001396
Mean motion
15.34393618 rev/d
Perigee alt
461.8 km
Apogee alt
463.7 km
Semi-major
6,840.9 km
B*
4.3782e-5
RAAN
326.0515°
Arg perigee
83.3028°
Mean anomaly
276.8134°
Rev number
14,292

§ Raw data

STARLINK-314211 59218U 24046T   26263.44445961  .00001103  00000+0  43782-4 0  99992 59218  53.1616 326.0515 0001396  83.3028 276.8134 15.34393618142926

JSON: /api/v1/satellites/59218 · /tle

For live sub-satellite position, see the globe view (requires WebGL).

§ Visibility from observer

Set your observer location to see the next 7 days of passes ≥ 10°. The values pass through the URL so the page stays shareable.

No JS? Fill the form by hand. The geolocation button needs JavaScript.